Location: Dentlein
(49.1477°N, 10.4231°E)
Time: 02:32:04
(UTC+00:00)

CZ-2D R/B - Pass Details

Date: 23 May 2024
Orbit: 791 x 843 km, 98.8° (Epoch: 13 June)

Event Time Altitude Azimuth Distance (km) Brightness Sun altitude
Rises 01:50:14 0° 12° (NNE) 3,414 6.7 -12.1°
Reaches altitude 10° 01:52:38 10° 10° (N) 2,473 5.7 -11.9°
Maximum altitude 01:58:04 65° 290° (WNW) 924 2.3 -11.4°
Enters shadow 02:02:43 14° 211° (SSW) 2,169 3.7 -10.9°
